SA7AHC Weather Reports


time (UTC)temp
F
wind
direction
speed
knots
gust
knots
rain 1hr
in
rain 24hr
in
rain mn
in
humidity
%
barometer
mb
20260507220204 38 151 0.0 0.0 0.00 0.00 0.00 53 1020.6
20260507215149 39 151 0.0 0.0 0.00 0.00 0.00 51 1020.6
20260507214146 39 151 0.0 0.0 0.00 0.00 0.00 50 1020.6
20260507213146 39 151 0.9 2.6 0.00 0.00 0.00 50 1020.3
20260507212137 40 152 0.0 1.7 0.00 0.00 0.00 49 1020.3
20260507211135 40 152 0.0 0.0 0.00 0.00 0.00 48 1020.3
20260507210135 41 152 0.0 0.9 0.00 0.00 0.00 47 1020.2
20260507205132 41 151 0.0 3.5 0.00 0.00 0.00 48 1020.0
20260507204132 42 144 0.9 4.3 0.00 0.00 0.00 47 1020.0
20260507203136 42 127 1.7 6.1 0.00 0.00 0.00 49 1019.8
20260507202134 42 158 0.9 4.3 0.00 0.00 0.00 50 1019.7
20260507201136 43 177 1.7 6.1 0.00 0.00 0.00 53 1019.8
20260507200134 43 170 0.9 5.2 0.00 0.00 0.00 51 1019.7
20260507195132 43 160 1.7 6.1 0.00 0.00 0.00 53 1019.3
20260507194127 43 253 0.9 5.2 0.00 0.00 0.00 57 1019.3
20260507193127 44 169 0.9 3.5 0.00 0.00 0.00 53 1019.3
20260507192122 45 159 0.9 4.3 0.00 0.00 0.00 50 1019.1
20260507191126 46 159 1.7 5.2 0.00 0.00 0.00 49 1019.1
20260507190123 47 145 1.7 7.0 0.00 0.00 0.00 47 1018.9
20260507185120 47 162 0.9 5.2 0.00 0.00 0.00 48 1018.8
20260507184125 48 145 1.7 7.0 0.00 0.00 0.00 47 1018.8
20260507183109 49 150 1.7 6.1 0.00 0.00 0.00 45 1018.8
20260507182108 49 139 2.6 7.8 0.00 0.00 0.00 45 1018.6
20260507181107 50 248 2.6 7.0 0.00 0.00 0.00 45 1018.6
20260507180112 51 145 1.7 5.2 0.00 0.00 0.00 44 1018.7
20260507175107 52 144 1.7 6.1 0.00 0.00 0.00 44 1018.2
20260507174102 52 157 2.6 8.7 0.00 0.00 0.00 43 1018.2
20260507173054 53 146 3.5 9.6 0.00 0.00 0.00 43 1018.2
20260507172055 54 159 1.7 8.7 0.00 0.00 0.00 43 1018.1
20260507171100 54 147 2.6 7.8 0.00 0.00 0.00 42 1018.1
20260507170052 54 153 3.5 7.8 0.00 0.00 0.00 43 1017.7
20260507165049 55 159 3.5 10.4 0.00 0.00 0.00 43 1017.7
20260507164048 55 162 3.5 11.3 0.00 0.00 0.00 41 1017.7
20260507163051 56 136 2.6 8.7 0.00 0.00 0.00 43 1017.7
20260507162044 56 150 4.3 8.7 0.00 0.00 0.00 41 1017.4
20260507161048 57 134 5.2 11.3 0.00 0.00 0.00 40 1017.5
20260507160039 60 138 4.3 9.6 0.00 0.00 0.00 36 1017.4
20260507155037 62 70 1.7 4.3 0.00 0.00 0.00 33 1017.3
20260507154035 62 277 1.7 5.2 0.00 0.00 0.00 32 1017.3
20260507153031 61 259 1.7 4.3 0.00 0.00 0.00 30 1017.3
20260507152031 60 267 0.0 1.7 0.00 0.00 0.00 33 1017.4
20260507151040 58 329 0.0 1.7 0.00 0.00 0.00 35 1017.3
20260507150029 60 330 0.9 4.3 0.00 0.00 0.00 32 1017.2
20260507145009 61 19 0.9 4.3 0.00 0.00 0.00 36 1017.2
20260507144006 61 319 1.7 6.1 0.00 0.00 0.00 30 1017.2
20260507143007 63 74 0.9 4.3 0.00 0.00 0.00 33 1017.3
20260507142002 61 80 0.9 3.5 0.00 0.00 0.00 37 1017.4
20260507141003 62 55 0.9 4.3 0.00 0.00 0.00 35 1017.4
20260507140006 58 328 0.0 3.5 0.00 0.00 0.00 35 1017.3
20260507134956 57 306 1.7 6.1 0.00 0.00 0.00 35 1017.0
20260507133947 60 269 1.7 6.1 0.00 0.00 0.00 35 1017.1
20260507132938 60 355 0.0 3.5 0.00 0.00 0.00 37 1017.2
20260507131935 57 37 0.9 3.5 0.00 0.00 0.00 33 1017.0
20260507130934 59 70 1.7 5.2 0.00 0.00 0.00 36 1017.0
20260507125935 59 62 1.7 6.1 0.00 0.00 0.00 35 1017.1
20260507124935 58 46 4.3 7.0 0.00 0.00 0.00 32 1016.9
20260507123939 59 220 2.6 8.7 0.00 0.00 0.00 35 1017.0
20260507122935 60 327 0.9 6.1 0.00 0.00 0.00 35 1017.0
20260507121936 58 302 0.0 1.7 0.00 0.00 0.00 35 1017.0
20260507120937 56 61 0.0 2.6 0.00 0.00 0.00 41 1016.9
20260507115932 56 24 0.0 3.5 0.00 0.00 0.00 37 1016.9
20260507114935 57 53 1.7 5.2 0.00 0.00 0.00 38 1017.0
20260507113928 58 201 0.9 5.2 0.00 0.00 0.00 37 1017.0
20260507112932 55 274 0.9 3.5 0.00 0.00 0.00 38 1016.9
20260507111920 56 338 0.9 2.6 0.00 0.00 0.00 35 1016.9
20260507110920 57 57 1.7 5.2 0.00 0.00 0.00 39 1016.9
20260507105907 58 65 0.9 4.3 0.00 0.00 0.00 40 1016.9
20260507104908 60 94 0.9 4.3 0.00 0.00 0.00 36 1017.1
20260507103908 57 39 0.9 5.2 0.00 0.00 0.00 40 1017.0
20260507102908 56 345 0.9 5.2 0.00 0.00 0.00 39 1016.9
20260507101904 54 275 2.6 6.1 0.00 0.00 0.00 40 1016.8
20260507100906 55 227 2.6 7.0 0.00 0.00 0.00 39 1016.9
20260507095906 55 319 1.7 3.5 0.00 0.00 0.00 41 1016.8
20260507094903 54 10 0.9 4.3 0.00 0.00 0.00 43 1016.8
20260507093908 54 240 1.7 7.0 0.00 0.00 0.00 42 1016.8
20260507092904 54 255 0.9 6.1 0.00 0.00 0.00 45 1016.8
20260507091911 55 47 1.7 6.1 0.00 0.00 0.00 41 1016.8
20260507090904 54 338 3.5 7.8 0.00 0.00 0.00 41 1016.8
20260507085904 54 292 1.7 5.2 0.00 0.00 0.00 44 1016.7
20260507084907 53 319 1.7 5.2 0.00 0.00 0.00 43 1016.5
20260507083906 52 232 1.7 5.2 0.00 0.00 0.00 43 1016.5
20260507082904 51 331 2.6 6.1 0.00 0.00 0.00 47 1016.3
20260507081907 51 218 2.6 7.0 0.00 0.00 0.00 45 1016.3
20260507080907 51 316 1.7 4.3 0.00 0.00 0.00 44 1016.2
20260507075915 51 334 1.7 7.8 0.00 0.00 0.00 46 1016.2
20260507074907 51 254 0.9 5.2 0.00 0.00 0.00 50 1016.1
20260507073904 50 44 1.7 5.2 0.00 0.00 0.00 50 1016.1
20260507072907 50 276 0.9 4.3 0.00 0.00 0.00 51 1016.0
20260507071903 48 311 1.7 6.1 0.00 0.00 0.00 53 1016.0
20260507070904 48 313 0.9 5.2 0.00 0.00 0.00 53 1016.0
20260507065909 47 259 2.6 7.8 0.00 0.00 0.00 54 1016.0
20260507064906 46 245 1.7 7.0 0.00 0.00 0.00 54 1016.0
20260507063904 45 339 1.7 5.2 0.00 0.00 0.00 56 1015.9
20260507062906 44 304 2.6 5.2 0.00 0.00 0.00 52 1015.8
20260507061906 44 274 1.7 5.2 0.00 0.00 0.00 52 1015.9
20260507060909 43 212 1.7 6.1 0.00 0.00 0.00 53 1015.8
20260507055909 43 248 2.6 5.2 0.00 0.00 0.00 55 1015.8
20260507054907 42 228 1.7 4.3 0.00 0.00 0.00 61 1015.8
20260507053905 41 266 0.9 3.5 0.00 0.00 0.00 67 1015.7
20260507052907 40 240 0.9 3.5 0.00 0.00 0.00 74 1015.5
20260507051904 38 132 0.9 1.7 0.00 0.00 0.00 79 1015.5
20260507045904 35 125 0.0 0.0 0.00 0.00 0.00 86 1015.2
20260507044906 34 124 0.0 0.0 0.00 0.00 0.00 86 1014.9
20260507043907 34 124 0.0 0.0 0.00 0.00 0.00 87 1014.9
20260507042906 34 124 0.0 0.0 0.00 0.00 0.00 87 1014.8
20260507041907 33 124 0.0 0.0 0.00 0.00 0.00 87 1014.8
20260507040906 33 124 0.0 0.0 0.00 0.00 0.00 87 1014.7
20260507035906 32 124 0.0 0.0 0.00 0.00 0.00 88 1014.6
20260507034908 32 124 0.0 0.0 0.00 0.00 0.00 87 1014.3
20260507033907 32 124 0.0 0.0 0.00 0.00 0.00 86 1014.3
20260507032906 32 124 0.0 0.0 0.00 0.00 0.00 85 1014.3
20260507031909 32 124 0.0 0.0 0.00 0.00 0.00 84 1014.2
20260507030913 32 124 0.0 0.0 0.00 0.00 0.00 81 1014.2
20260507025904 31 124 0.0 0.0 0.00 0.00 0.00 81 1014.1
20260507024903 32 124 0.0 0.0 0.00 0.00 0.00 80 1014.1
20260507023907 32 124 0.0 0.0 0.00 0.00 0.00 80 1014.1
20260507022910 32 124 0.0 0.0 0.00 0.00 0.00 80 1014.1
20260507021907 32 124 0.0 0.0 0.00 0.00 0.00 79 1014.1
20260507020903 32 124 0.0 0.0 0.00 0.00 0.00 79 1014.1
20260507015906 33 124 0.0 0.0 0.00 0.00 0.00 79 1014.2
20260507014905 33 124 0.0 0.0 0.00 0.00 0.00 78 1014.2
20260507013903 33 124 0.0 0.0 0.00 0.00 0.00 78 1014.2
20260507012906 33 124 0.0 0.0 0.00 0.00 0.00 78 1014.2
20260507011849 33 124 0.0 0.0 0.00 0.00 0.00 77 1014.1
20260507010840 34 124 0.0 0.0 0.00 0.00 0.00 78 1014.1
20260507005832 34 124 0.0 0.0 0.00 0.00 0.00 78 1014.0
20260507004832 34 124 0.0 0.0 0.00 0.00 0.00 78 1014.1
20260507003832 34 124 0.0 0.0 0.00 0.00 0.00 77 1014.1
20260507002832 34 124 0.0 0.0 0.00 0.00 0.00 77 1014.1
20260507001832 34 124 0.0 0.0 0.00 0.00 0.00 78 1014.1
20260507000835 34 124 0.0 0.0 0.00 0.00 0.00 78 1014.1
20260506235834 34 124 0.0 0.0 0.00 0.00 0.00 77 1014.1
20260506234832 34 124 0.0 0.0 0.00 0.00 0.00 76 1014.1
20260506233825 34 124 0.0 0.9 0.00 0.00 0.00 75 1014.1
20260506232817 33 124 0.0 0.9 0.00 0.00 0.00 74 1014.2
20260506231812 33 124 0.0 0.0 0.00 0.00 0.00 75 1014.2
20260506230804 34 124 0.0 1.7 0.00 0.00 0.00 75 1014.2
20260506225809 33 124 0.0 0.0 0.00 0.00 0.00 76 1014.1
20260506224807 33 124 0.0 0.0 0.00 0.00 0.00 75 1014.1
20260506223807 33 124 0.0 0.0 0.00 0.00 0.00 75 1014.1
20260506222806 33 124 0.0 1.7 0.00 0.00 0.00 73 1013.9
20260506221806 33 124 0.9 1.7 0.00 0.00 0.00 72 1013.7